Location: ????????
(55.3939°N, 37.4780°E)
Time: 15:52:11
(UTC+00:00)

Daily predictions for brighter satellites

Satellite Brightness Start Highest point End
(mag) Time Altitude Azimuth Time Altitude Azimuth Time Altitude Azimuth
Feng Yun 1-1 Rocket 4.3 17:03:13 10° SSE 17:08:45 74° ENE 17:14:12 10° NNW
CSL-04 Rocket 3.9 17:03:24 10° SSE 17:08:58 80° WSW 17:14:34 10° NNW
Cosmos 372 Rocket 4.2 17:04:56 10° SSW 17:10:10 80° WNW 17:15:27 10° NNE
Cosmos 2074 Rocket 4.2 17:05:50 10° SSW 17:12:05 83° WNW 17:18:25 10° N
NOSS 2-3 (C) 4.4 17:07:36 10° NW 17:12:15 67° SW 17:18:41 10° SE
Cosmos 1898 Rocket 3.5 17:08:47 10° SSW 17:14:01 87° ESE 17:19:16 10° NNE
COBE Rocket 4.2 17:09:14 10° NNE 17:14:10 79° WNW 17:19:13 10° SSW
MOS 1 4.3 17:08:37 10° SSE 17:14:14 73° ENE 17:19:54 10° NNW
NOSS 2-1 (E) 4.1 17:11:37 10° NW 17:14:25 31° NNE 17:17:34 10° E
Cosmos 2278 Rocket 2.3 17:11:14 10° NNW 17:16:56 68° NE 17:22:35 10° SE
NOSS 2-1 (C) 3.9 17:14:21 10° NW 17:17:10 34° NNE 17:20:24 10° E
NOSS 2-1 (D) 3.8 17:14:54 10° NW 17:17:46 37° NNE 17:21:06 10° E
CZ-4B R/B 3.3 17:13:16 10° SSE 17:18:47 69° ENE 17:24:25 10° NNW
CZ-4B DEB 4.3 17:13:37 10° SSE 17:19:06 89° ENE 17:24:38 10° NNW
COSMOS 2428 3.3 17:14:30 10° S 17:19:39 36° ESE 17:24:49 10° NE
USA 234 3.5 17:14:02 10° ENE 17:20:19 47° SE 17:26:36 10° SW
SL-8 Rocket 4.4 17:15:52 10° SSE 17:21:45 45° E 17:27:43 10° NNE
BREEZE-M DEB (TANK) 3.7 17:20:18 10° SSW 17:22:08 19° SSE 17:24:46 10° ESE
Cosmos 1703 Rocket 4.1 17:18:46 10° NNW 17:23:03 61° W 17:27:17 10° S
BREEZE-M DEB (TANK) 3.2 17:21:07 10° SW 17:23:05 23° S 17:25:13 10° ESE
Cosmos 1680 Rocket 4.0 17:20:09 10° NNW 17:25:18 61° WSW 17:30:24 10° S
USA 238 DEB 4.0 17:19:31 10° NW 17:26:43 85° NE 17:34:38 10° SE
USA 238 4.0 17:19:42 10° NW 17:26:53 84° NE 17:34:48 10° SE
Cosmos 1943 Rocket 2.3 17:22:58 10° NW 17:28:42 90° ENE 17:34:22 10° SSE
ADEOS 3.6 17:24:19 10° SSE 17:29:31 77° ENE 17:34:45 10° NNW
Cosmos 1470 Rocket 4.1 17:25:15 10° SSW 17:29:36 64° WNW 17:33:56 10° N
Cosmos 1937 Rocket 3.6 17:25:26 10° SSW 17:30:45 89° ESE 17:36:05 10° NNE
PAYLOAD B 4.3 17:25:24 10° SSE 17:30:54 86° WSW 17:36:27 10° NNW
Cosmos 2333 Rocket 3.5 17:27:12 10° WSW 17:32:40 46° NW 17:38:08 10° NNE
IRS-1A Rocket 4.3 17:27:37 10° SSE 17:33:09 69° ENE 17:38:50 10° NNW
Cosmos 2366 rocket 4.2 17:27:51 10° SSE 17:33:43 49° E 17:39:36 10° NNE
Cosmos 1933 Rocket 3.5 17:32:36 10° S 17:36:58 77° E 17:41:24 10° NNE
Cosmos 2327 Rocket 4.5 17:30:51 10° S 17:37:00 71° E 17:43:18 10° NNE
Terra 1.8 17:37:33 10° SSE 17:42:15 86° WSW 17:46:59 10° NNW
In-Cosmos 22 Rocket 4.3 17:38:47 10° NNW 17:44:09 76° W 17:49:26 10° S
Aureole 3 3.9 17:43:50 10° N 17:47:55 52° ENE 17:52:30 12° SSE
Cosmos 1733 Rocket 3.8 17:44:04 10° SSE 17:47:59 34° E 17:51:56 10° NNE
SPOT 3 Rocket 4.2 17:44:39 13° SE 17:48:57 41° ENE 17:53:48 10° N
SKYMED 3 4.3 17:48:38 10° NNE 17:52:29 57° ESE 17:56:18 10° S
Helios 1A Rocket 2.6 17:49:45 10° NNE 17:52:59 71° WNW 17:56:11 10° SSW
Ariane Rocket 3.8 17:49:33 14° ESE 17:53:21 36° ENE 17:57:56 10° N
Geosat 4.0 17:49:59 10° NE 17:54:56 56° ESE 17:59:50 10° SSW
SL-08 R/B 3.5 17:50:39 10° NNE 17:55:27 55° E 18:00:16 10° S
Lacrosse 5 rocket 0.7 17:54:30 10° SW 17:57:38 55° SSE 18:00:46 10° ENE
ERS-1 Rocket 3.5 17:53:33 10° S 17:58:29 59° W 18:03:27 10° NNW
Cosmos 614 Rocket 4.0 17:53:54 10° NNW 17:59:06 69° ENE 18:03:13 16° SE
Cosmos 2360 Rocket 3.5 17:54:43 10° WSW 18:00:07 45° NW 18:05:34 10° NNE
Spot 2 Rocket 3.4 17:56:23 10° SSE 18:01:25 83° ENE 18:06:28 10° NNW
Meteor 2-21 4.4 17:56:09 10° N 18:02:19 76° ENE 18:08:22 11° SSE
Cosmos 2218 Rocket 3.9 17:57:14 10° S 18:03:19 70° E 18:09:28 10° NNE
Meteor 1-11 4.2 17:59:00 10° NNW 18:04:36 78° ENE 18:09:39 12° SSE
Cosmos 1025 Rocket 3.5 18:01:54 10° N 18:05:57 41° ENE 18:08:31 20° SE
Cosmos 1869 Rocket 3.7 18:02:40 10° SSW 18:07:04 78° WNW 18:11:32 10° N
SeaSat 1 3.7 18:03:22 12° E 18:07:13 31° NE 18:11:30 10° NNW
ATLAS 3B R/B 3.7 18:00:14 10° WSW 18:07:57 58° NNW 18:15:44 10° NE
ATLAS 5 CENTAUR R/B 3.2 18:05:26 10° WNW 18:08:11 23° N 18:11:17 10° NE
Okean-O 2.6 18:05:33 12° SSE 18:09:32 89° WSW 18:13:57 10° NNW
Cosmos 2322 Rocket 3.8 18:05:07 10° WSW 18:10:20 38° NW 18:15:36 10° NNE
NOSS 3-4 (A) 3.7 18:07:19 10° S 18:12:04 34° ESE 18:17:17 10° ENE
Cosmos 1821 Rocket 4.1 18:06:15 10° S 18:12:24 62° E 18:18:39 10° NNE
NOSS 3-4 (C) 3.7 18:07:49 10° S 18:12:35 34° ESE 18:17:49 10° ENE
USA 186 1.2 18:15:49 28° S 18:16:42 56° WSW 18:18:54 10° NNW
CZ-4B R/B 3.5 18:13:47 19° SE 18:17:08 60° ENE 18:21:51 10° NNW
USA 32 4.0 18:12:08 10° S 18:17:20 77° E 18:22:36 10° N
NOSS 3-1 (C) 4.2 18:13:06 10° NW 18:19:13 58° NNE 18:26:02 14° ESE
Cosmos 1400 Rocket 3.0 18:18:06 23° SSE 18:19:53 41° E 18:23:19 10° NNE
CZ-4 R/B 3.7 18:17:16 10° SW 18:20:09 20° W 18:23:01 10° NW
CZ-4B R/B 2.6 18:18:47 24° SSE 18:20:44 64° ENE 18:24:11 10° N
SL-16 R/B 4.5 18:16:04 10° W 18:20:51 27° NNW 18:25:40 10° NNE
Helios 1B rocket 4.3 18:19:53 11° ENE 18:21:09 13° NE 18:22:54 10° NNE
Cosmos 2237 Rocket 2.5 18:17:16 10° S 18:22:39 45° ESE 18:28:03 10° NE
Cosmos 1980 3.9 18:18:21 10° S 18:23:45 48° ESE 18:29:10 10° NE
ASTEX 1 3.3 18:21:31 16° SSE 18:25:22 75° E 18:30:18 10° N
ARIANE 6 FM1 Upper Stage 3.6 18:21:44 10° W 18:25:42 47° NNW 18:29:36 10° NE
CZ-2C R/B 2.4 18:25:11 34° ESE 18:26:00 46° ENE 18:28:49 10° N
Cosmos 1000 Rocket 4.5 18:22:33 10° N 18:28:46 71° ENE 18:33:14 19° SSE
Okean O Rocket 2.1 18:25:01 13° S 18:28:53 59° WSW 18:33:11 10° NNW
Cosmos 2297 4.5 18:24:05 10° NNW 18:29:35 44° NE 18:33:21 19° ESE
Cosmos 2242 Rocket 4.0 18:25:23 10° NNW 18:29:51 63° W 18:33:39 14° S
USA 245 3.7 18:28:00 22° SSE 18:30:47 86° ENE 18:35:54 10° NNW
Cosmos 2322 3.8 18:25:25 10° SW 18:31:10 80° NW 18:36:56 10° NNE
Cosmos 1602 3.6 18:30:26 10° N 18:32:23 29° ENE 18:32:23 29° ENE
Cosmos 2219 Rocket 3.6 18:29:19 10° WSW 18:34:36 41° NW 18:39:55 10° NNE
Meteor 2-21 Rocket 4.4 18:30:39 10° NNW 18:36:48 89° W 18:41:36 18° S
USA 59 Rocket -0.3 18:33:45 10° WNW 18:36:54 57° SW 18:38:24 31° SSE
Cosmos 1346 Rocket 2.5 18:34:18 10° N 18:37:56 73° ENE 18:39:22 34° SSE
RESURS DK-1 3.1 18:42:09 29° ESE 18:42:09 29° ESE 18:45:23 10° NE
NOSS 0 Rocket 3.9 18:37:59 10° SSW 18:44:13 80° ESE 18:50:29 10° NE
Cosmos 1674 Rocket 3.6 18:42:22 10° NNW 18:46:42 77° W 18:49:09 25° S
Cosmos 2369 Rocket 2.5 18:44:34 10° NNW 18:50:08 58° NE 18:53:07 27° ESE
Cosmos 1908 Rocket 3.9 18:51:54 35° SE 18:53:10 45° E 18:57:19 10° NNE
Dummy Sat-02 4.4 18:53:00 33° S 18:54:32 90° WSW 18:58:10 10° N
Cosmos 405 Rocket 3.2 18:55:40 10° N 18:58:14 30° ENE 18:58:14 30° ENE
Cosmos 1125 Rocket 3.4 18:55:00 14° SSW 18:59:32 67° ESE 19:04:46 10° NNE
Cosmos 2278 Rocket 3.7 18:55:47 10° NW 19:00:37 30° WSW 19:05:01 12° SSW
Cosmos 1656 Rocket 3.7 18:56:31 10° NW 19:01:57 73° WSW 19:04:39 31° SSE
Cosmos 1782 Rocket 4.4 19:01:51 30° E 19:02:13 31° E 19:06:01 10° NNE
SJ 16-02 3.7 19:00:33 10° N 19:03:02 15° NE 19:05:32 10° ENE
NOSS 2-1 (E) 3.4 19:00:08 10° WNW 19:03:16 51° SW 19:03:59 43° S
COSMOS 2428 3.3 18:58:00 10° SW 19:03:40 59° NW 19:09:22 10° NNE
USA 234 3.2 18:57:11 10° ENE 19:03:47 87° SSE 19:10:23 10° WSW
IRS-1C Rocket 4.2 19:01:19 26° S 19:04:22 73° WSW 19:09:41 10° NNW
NOSS 2-1 (C) 3.6 19:02:55 10° WNW 19:06:00 43° SW 19:06:39 38° SSW
NOSS 2-1 (D) 3.9 19:03:22 10° WNW 19:06:25 38° SW 19:07:06 35° SSW
SL-08 R/B 4.4 19:02:36 23° S 19:06:36 72° E 19:12:41 10° NNE
Cosmos 1943 Rocket 4.2 19:07:33 10° NW 19:11:44 21° WSW 19:15:52 10° SSW
Meteor 2-8 Rocket 4.4 19:07:23 17° S 19:12:15 90° W 19:18:22 10° NNE
NOSS 3-1 (A) 4.2 19:06:24 10° NW 19:12:35 58° NNE 19:18:50 17° ESE
DNEPR-1 R/B 3.4 19:09:54 10° SW 19:14:07 87° SE 19:18:42 10° NE
Cosmos 2221 Rocket 3.7 19:10:19 10° NNW 19:14:42 69° W 19:16:28 35° S
Cosmos 921 Rocket 4.1 19:15:28 10° NNW 19:19:34 34° NE 19:20:52 29° E
Terra 4.4 19:17:47 10° WSW 19:20:31 15° W 19:23:16 10° NW
COSMOS 2455 3.6 19:19:52 10° NW 19:25:41 47° NNE 19:29:24 22° E
SPOT 3 Rocket 4.5 19:25:12 21° SSW 19:28:20 42° W 19:33:16 10° NNW
Cosmos 2150 Rocket 4.3 19:28:20 42° SE 19:29:03 45° ESE 19:33:59 10° NE
Ariane Rocket 3.7 19:29:37 25° SSW 19:32:09 46° W 19:37:02 10° NNW
SL-16 R/B 2.5 19:31:41 40° SE 19:32:47 45° ESE 19:38:10 10° NE
SWAS 4.4 19:29:46 10° NNW 19:33:49 63° NE 19:34:27 54° E
Lacrosse 5 rocket 0.9 19:31:06 10° W 19:34:16 65° N 19:34:17 65° N
Cosmos 2058 3.0 19:32:22 10° N 19:36:15 52° ENE 19:36:28 51° E
Cosmos 44 4.5 19:37:56 28° E 19:37:56 28° E 19:41:29 10° ENE
Cosmos 2346 Rocket 4.4 19:32:38 10° N 19:38:46 74° ENE 19:41:07 40° SSE
Cosmos 1315 Rocket 3.5 19:40:41 37° ENE 19:40:41 37° ENE 19:43:37 10° NNE
Cosmos 1300 Rocket 3.3 19:42:33 61° S 19:43:16 83° E 19:47:34 10° NNE
TSX-5 4.2 19:38:33 10° SW 19:43:20 71° NW 19:47:17 10° NE
SeaSat 1 2.4 19:42:58 49° SSE 19:44:16 76° WSW 19:49:13 10° NW
Helios 1A 3.1 19:40:52 10° NNE 19:44:31 50° E 19:44:31 50° E
Cosmos 1934 Rocket 4.0 19:42:07 27° SSW 19:45:47 82° WNW 19:52:03 10° N
Cosmos 1447 Rocket 4.5 19:43:33 10° N 19:49:54 78° ENE 19:52:09 42° SSE
ATLAS 5 CENTAUR R/B 2.7 19:47:43 10° NW 19:51:04 34° NNE 19:53:07 22° ENE
Cosmos 2084 Rocket 3.2 19:50:05 46° SW 19:51:14 88° SE 19:55:24 10° NE
Cosmos 1869 3.1 19:53:24 68° W 19:53:25 69° WNW 19:56:59 10° N
Helios 1B rocket 2.0 19:53:53 77° NNW 19:53:53 77° NNW 19:57:11 10° NNW
Cosmos 371 Rocket 4.1 19:50:59 10° NNW 19:55:36 42° NE 19:56:56 34° E
Cosmos 407 Rocket 3.9 19:51:28 10° NNW 19:56:32 53° NE 19:57:57 40° ESE
ATLAS 3B R/B 4.0 19:52:32 10° WNW 20:00:07 46° N 20:07:33 10° ENE
NOSS 3-4 (A) 3.4 19:57:01 10° WSW 20:02:27 72° NNW 20:08:40 10° NE
NOSS 3-4 (C) 3.4 19:57:30 10° WSW 20:02:57 73° NNW 20:09:12 10° NE
Cosmos 1140 Rocket 3.4 19:58:01 10° NNW 20:03:12 83° WSW 20:04:15 58° SSE
ARIANE 6 FM1 Upper Stage 4.4 20:01:43 10° WNW 20:05:22 31° N 20:08:58 10° ENE
Cosmos 2237 Rocket 3.1 20:01:12 10° WSW 20:06:43 49° NW 20:12:16 10° NNE
NOSS 3-1 (C) 3.9 20:03:41 10° NW 20:10:19 66° SW 20:13:20 40° SSE
Cosmos 1975 Rocket 3.4 20:07:32 10° NNW 20:11:55 55° W 20:12:31 51° SW
Cosmos 2285 Rocket 3.9 20:10:28 33° SSW 20:13:33 89° ESE 20:19:57 10° NNE
Cosmos 2297 4.1 20:08:20 10° NW 20:13:55 53° WSW 20:15:15 43° SSW
Cosmos 1535 Rocket 4.4 20:12:13 39° SSW 20:14:40 80° W 20:20:52 10° N
Cosmos 1356 Rocket 3.5 20:15:18 65° ENE 20:15:18 65° ENE 20:18:58 10° NNE
ALOS 2 2.8 20:17:13 54° E 20:17:32 55° ENE 20:21:51 10° N
RESURS DK-1 3.3 20:17:16 26° WSW 20:19:08 45° NW 20:22:58 10° NNE
Cosmos 1605 Rocket 3.9 20:17:09 40° SSW 20:19:29 79° WNW 20:25:39 10° N
Cosmos 2298 Rocket 4.0 20:20:41 47° SSW 20:22:16 85° WNW 20:27:39 10° NNE
Cosmos 1656 4.4 20:17:52 10° NNW 20:23:07 46° NE 20:25:13 31° E
Cosmos 1862 4.0 20:22:26 10° NNW 20:25:31 42° WNW 20:25:31 42° WNW
ARIANE 5 R/B 2.4 20:26:44 79° E 20:26:51 80° ENE 20:31:12 10° NNW
Cosmos 1818 4.2 20:27:11 10° NW 20:32:34 53° NNE 20:35:11 29° E
Spot 4 3.6 20:32:16 74° SSE 20:32:42 87° ENE 20:37:28 10° NNW
Cosmos 2369 Rocket 3.0 20:28:54 10° NW 20:33:56 35° WSW 20:34:53 33° SW
Cosmos 2173 Rocket 4.0 20:38:04 51° SE 20:39:16 61° E 20:45:15 10° NNE
ACS3 Solar Sail 4.1 20:40:21 10° ENE 20:40:44 10° ENE 20:41:07 10° ENE
SJ 16-02 1.5 20:37:45 10° NNW 20:42:00 62° ENE 20:42:00 62° ENE
USA 234 3.3 20:40:16 10° E 20:46:49 79° N 20:53:24 10° W
Cosmos 1190 Rocket 4.3 20:41:54 10° NNW 20:47:10 62° ENE 20:48:17 50° ESE
SAR-Lupe-2 4.5 20:49:00 45° NW 20:49:00 45° NW 20:51:33 10° NNW
Cosmos 2100 Rocket 3.9 20:47:41 55° SSE 20:48:59 72° E 20:55:10 10° NNE
Cosmos 1697 Rocket 4.1 20:44:14 10° NNW 20:49:24 34° NE 20:53:12 16° E
MetOp-A 4.0 20:49:22 61° ESE 20:49:58 68° ENE 20:55:03 10° NNW
Cosmos 1943 3.1 20:52:38 63° SSE 20:53:13 67° ESE 20:58:52 10° NE
Meteor 2-1 Rocket 4.5 20:53:51 51° SE 20:54:42 56° E 21:00:23 10° NNE
Cosmos 921 Rocket 3.9 20:53:32 10° NW 20:57:26 40° W 20:57:26 40° W
NOSS 3-1 (A) 3.9 20:57:03 10° NW 21:03:45 66° SW 21:06:11 46° SSE
CZ-2C R/B 3.0 21:03:23 47° ESE 21:04:40 59° ENE 21:10:03 10° N
Cosmos 1980 Rocket 4.0 21:01:09 10° NNW 21:06:02 28° NNE 21:10:53 10° E
BREEZE-M R/B 4.3 20:57:17 10° WSW 21:06:06 55° SSE 21:11:38 10° E
Cosmos 332 Rocket 4.3 21:06:45 10° NNW 21:11:30 52° NE 21:12:20 46° E
COSMOS 2455 2.8 21:05:55 10° NW 21:11:52 60° WSW 21:12:30 57° SSW
Cosmos 304 Rocket 4.1 21:07:32 10° NW 21:11:56 53° W 21:11:56 53° W
Cosmos 2228 4.4 21:15:35 27° ENE 21:15:35 27° ENE 21:18:43 10° NNE
Cosmos 1315 Rocket 4.5 21:15:21 24° WNW 21:15:45 24° WNW 21:18:54 10° N
SL-16 R/B 3.0 21:13:28 22° WSW 21:16:55 48° NW 21:22:26 10° NNE
Cosmos 44 3.6 21:16:10 47° WSW 21:17:39 73° NW 21:23:03 10° NE
Cosmos 2251 Rocket 3.4 21:13:29 10° NNW 21:18:50 81° WSW 21:19:17 73° S
Cosmos 968 Rocket 4.2 21:14:28 10° NNW 21:19:30 47° NE 21:21:08 36° E
Cosmos 676 Rocket 4.1 21:14:17 10° NNW 21:19:35 69° ENE 21:20:32 56° ESE
Cosmos 1420 Rocket 4.4 21:20:22 48° ESE 21:20:22 48° ESE 21:25:23 10° NE
Cosmos 1954 Rocket 3.8 21:16:40 10° NNW 21:21:58 88° ENE 21:22:29 74° SSE
SeaSat 1 4.4 21:22:34 16° W 21:22:34 16° W 21:25:26 10° WNW
Cosmos 1536 Rocket 4.4 21:18:36 10° NNW 21:22:19 39° W 21:22:19 39° W
Cosmos 1864 Rocket 4.4 21:23:06 57° S 21:24:31 87° E 21:30:54 10° NNE
Cosmos 2151 Rocket 3.8 21:27:43 60° WNW 21:27:43 60° WNW 21:32:04 10° N
SL-08 R/B 4.4 21:29:44 57° SSE 21:30:56 73° E 21:37:08 10° NNE
ATLAS 5 CENTAUR R/B 2.1 21:29:31 10° NW 21:32:15 46° WNW 21:32:15 46° WNW
Cosmos 1725 Rocket 3.9 21:33:54 57° SSW 21:35:22 88° W 21:41:45 10° NNE
Cosmos 371 Rocket 4.1 21:31:19 10° NW 21:35:22 38° W 21:35:22 38° W
CZ-2C R/B 3.0 21:31:29 10° NNE 21:36:30 66° ESE 21:36:52 64° SE
Cosmos 1802 Rocket 4.0 21:35:01 55° SSW 21:36:33 82° WNW 21:42:53 10° N
Cosmos 2056 Rocket 4.2 21:36:55 40° ESE 21:37:05 40° ESE 21:42:07 10° NE
Okean 2 Rocket 3.3 21:37:25 63° WNW 21:37:25 63° WNW 21:41:46 10° N
Meteor 2-3 Rocket 4.1 21:32:24 10° NNW 21:37:45 47° W 21:38:25 45° WSW
Cosmos 407 Rocket 4.5 21:33:41 10° NW 21:38:02 32° W 21:38:02 32° W
Cosmos 1782 4.0 21:40:09 32° NE 21:40:09 32° NE 21:42:25 10° NNE
Cosmos 1743 4.3 21:37:04 10° NNW 21:38:32 25° NNW 21:38:32 25° NNW
Cosmos 1626 Rocket 4.1 21:36:33 10° N 21:40:43 47° ENE 21:40:49 47° ENE
Cosmos 1892 Rocket 3.8 21:40:14 10° NNW 21:44:16 61° WNW 21:44:16 61° WNW
ARIANE 6 FM1 Upper Stage 3.4 21:41:09 10° NW 21:45:02 48° NNE 21:45:58 39° ENE
Cosmos 1624 Rocket 4.5 21:46:57 44° ESE 21:47:03 44° ESE 21:51:58 10° NE
ATLAS 3B R/B 3.3 21:44:15 10° NW 21:52:09 65° NNE 21:59:42 10° ESE
Okean 1 Rocket 3.5 21:53:44 50° WNW 21:53:44 50° WNW 21:57:55 10° N
ALOS 2 4.2 21:54:36 23° W 21:54:36 23° W 21:57:46 10° NW
Cosmos 1833 Rocket 3.8 21:54:11 28° ESE 21:54:38 29° ESE 21:59:22 10° NE
Cosmos 2233 Rocket 3.9 21:53:29 56° S 21:54:57 90° ESE 22:01:17 10° NNE
USA 281 3.6 21:54:56 23° SE 21:59:10 62° NE 22:05:40 10° NNW
USA 229 DEB 4.0 21:53:24 10° NW 22:00:35 77° NE 22:08:40 10° ESE
USA 229 4.0 21:53:27 10° NW 22:00:39 77° NE 22:08:44 10° ESE
PSLV R/B 4.3 21:57:24 10° N 22:01:23 42° WNW 22:01:30 42° WNW
Sich 1 Rocket 4.1 22:02:13 47° WNW 22:02:18 47° WNW 22:06:34 10° N
Meteor 1-27 4.2 22:04:30 61° SSW 22:05:36 89° WNW 22:11:25 10° NNE
Cosmos 1656 4.0 22:01:36 10° NW 22:06:36 45° WSW 22:06:36 45° WSW
Meteor 1-20 Rocket 4.3 22:03:52 10° N 22:09:22 69° ENE 22:10:42 50° SE
ATLAS 2AS CENTAUR R/B 3.6 22:08:25 30° SE 22:09:32 31° ESE 22:15:22 10° ENE
Cosmos 2151 3.2 22:06:54 10° N 22:11:02 63° ENE 22:11:02 63° ENE
Cosmos 2016 Rocket 4.3 22:10:46 43° SW 22:12:36 58° WNW 22:18:53 10° N
Cosmos 1455 Rocket 3.3 22:12:41 61° WNW 22:12:41 61° WNW 22:17:04 10° N
Landsat 5 3.5 22:09:26 10° NNE 22:13:28 81° NNW 22:13:28 81° NNW
ARGOS Delta rocket 4.2 22:09:49 10° N 22:14:02 46° WNW 22:14:19 46° W
Cosmos 2061 Rocket 3.9 22:14:38 53° SSW 22:16:09 78° WNW 22:22:24 10° N
Cosmos 1818 3.8 22:10:54 10° NW 22:15:46 49° WSW 22:15:46 49° WSW
Nadezhda 4 Rocket 4.2 22:10:59 10° N 22:17:10 64° ENE 22:19:34 37° SE
DELTA 2 DEB (DPAF) 4.2 22:13:35 10° NNE 22:16:28 54° NNE 22:16:28 54° NNE
Aureole 3 Rocket 3.0 22:17:34 84° SSW 22:17:44 90° WNW 22:23:17 10° NNE
Cosmos 292 Rocket 3.6 22:13:23 10° NNW 22:18:13 86° WSW 22:18:29 80° S
Cosmos 1371 Rocket 3.9 22:18:24 65° SSE 22:19:00 73° ESE 22:24:18 10° NNE
SJ 16-02 3.2 22:16:31 10° NW 22:18:30 18° WNW 22:18:30 18° WNW
CZ-4C R/B 4.2 22:16:40 10° NNE 22:18:46 38° NNE 22:18:46 38° NNE
Cosmos 1544 Rocket 3.9 22:19:57 55° ESE 22:20:05 55° E 22:24:26 10° NNE
Tsikada Rocket 4.5 22:15:10 10° NNW 22:21:10 46° W 22:22:25 41° WSW
Cosmos 1758 Rocket 3.4 22:18:15 10° NNW 22:22:20 78° NW 22:22:20 78° NW
Meteor 1-22 4.5 22:17:32 10° NNW 22:22:58 80° WSW 22:23:47 64° S
Cosmos 1805 4.4 22:21:15 10° N 22:23:57 31° ENE 22:23:57 31° ENE
ACS3 Solar Sail 2.3 22:18:54 10° NNE 22:24:41 48° E 22:26:41 35° SE
Cosmos 1603 3.9 22:23:25 45° WSW 22:25:02 66° NW 22:30:44 10° NNE
Cosmos 1741 Rocket 3.9 22:23:19 10° NNW 22:28:39 89° ENE 22:29:50 56° SSE
USA 234 3.1 22:23:21 10° ESE 22:29:55 80° SSW 22:36:31 10° WNW
Cosmos 1697 Rocket 2.6 22:28:12 10° NW 22:33:50 72° WSW 22:34:53 57° S
Cosmos 1943 4.4 22:34:21 20° W 22:37:39 36° NW 22:42:54 10° NNE
Cosmos 1452 Rocket 4.4 22:37:06 33° SE 22:38:11 37° ESE 22:42:57 10° NE
Cosmos 1513 Rocket 4.5 22:40:26 47° S 22:42:27 89° E 22:48:51 10° NNE
CZ-2C R/B 3.7 22:44:49 31° W 22:45:12 31° W 22:50:04 10° NNW
IDEFIX/ARIANE 42P 3.6 22:40:28 10° NNE 22:45:15 37° E 22:46:59 29° SE
Cosmos 2026 Rocket 4.3 22:43:45 10° N 22:49:56 65° ENE 22:53:28 27° SSE
Cosmos 1980 Rocket 2.2 22:45:06 10° NNW 22:50:51 82° NE 22:54:16 25° SE
Cosmos 2333 Rocket 4.0 22:45:56 10° NNW 22:50:58 31° NE 22:55:58 10° E
Cosmos 1825 Rocket 3.7 22:47:15 10° N 22:51:33 64° ENE 22:52:21 52° SE
Cosmos 2228 3.7 22:51:49 40° WNW 22:51:56 40° WNW 22:55:56 10° N
Cosmos 1092 Rocket 4.4 22:46:57 10° N 22:53:05 59° ENE 22:56:55 23° SE
Cosmos 1437 Rocket 3.4 22:53:42 39° E 22:53:42 39° E 22:56:42 10° NNE
Cosmos 1602 Rocket 3.4 22:49:44 10° NNW 22:54:03 69° W 22:54:05 69° WSW
Cosmos 1076 Rocket 4.1 22:50:29 10° N 22:54:44 52° ENE 22:56:04 37° SE
Cosmos 968 Rocket 4.1 22:56:22 10° NW 23:01:01 38° WSW 23:01:01 38° WSW
Spot 1 3.7 22:57:30 10° NNE 23:01:33 85° ESE 23:01:50 77° S
SL-16 R/B 4.4 22:58:12 10° WNW 23:02:25 21° NNW 23:06:38 10° NNE
Resurs 1-4 Rocket 4.3 22:59:04 10° NE 23:02:45 19° E 23:06:26 10° SE
Okean 1-7 Rocket 3.4 23:00:11 10° NNW 23:04:34 83° W 23:05:05 68° S
Meteor 1-25 Rocket 4.3 23:02:29 10° NNW 23:08:15 63° W 23:09:53 45° SSW
Cosmos 1782 4.4 23:14:04 20° WNW 23:14:04 20° WNW 23:16:37 10° NNW
H-2A R/B 4.1 23:11:23 10° ESE 23:14:32 27° ENE 23:17:38 10° N
CZ-2C R/B 4.4 23:11:50 10° N 23:15:59 27° WNW 23:17:51 22° W
Cosmos 2360 Rocket 4.1 23:12:37 10° NNW 23:17:36 30° NE 23:22:36 10° E
ADEOS Rocket 4.1 23:10:46 10° NNE 23:17:47 50° E 23:23:11 19° SSE
Cosmos 1850 Rocket 4.4 23:13:54 10° NW 23:18:44 40° WSW 23:18:56 40° WSW
Cosmos 2056 Rocket 4.2 23:17:08 33° WSW 23:19:07 47° NW 23:24:22 10° NNE
Cosmos 2082 Rocket 3.6 23:18:10 19° SSE 23:21:02 29° ESE 23:25:54 10° NE
GP-B 3.0 23:16:49 10° N 23:21:13 89° E 23:22:13 54° S
ARIANE 6 FM1 Upper Stage 4.1 23:20:14 10° WNW 23:21:54 23° WNW 23:21:54 23° WNW
Cosmos 2322 Rocket 3.9 23:22:53 10° NNW 23:28:00 34° NE 23:33:08 10° ESE
Cosmos 1634 Rocket 4.4 23:24:32 24° SSE 23:28:14 58° E 23:34:17 10° NNE
Cosmos 1302 Rocket 4.3 23:29:11 35° S 23:31:10 57° ESE 23:36:15 10° NNE
Cosmos 1627 Rocket 4.4 23:26:28 10° NNW 23:32:40 75° W 23:36:00 30° S
USA 267 3.6 23:27:12 10° ENE 23:33:36 51° SE 23:36:26 32° SSW
Cosmos 2058 Rocket 4.0 23:33:31 24° SSE 23:35:45 42° E 23:39:58 10° NNE
MOZ.5/SAFIR/RUBIN 5/SL-8 3.8 23:33:16 26° SSE 23:35:57 81° ENE 23:40:39 10° NNW
Cosmos 2237 4.2 23:30:49 10° NW 23:36:36 84° NE 23:42:21 10° SE
Cosmos 1536 3.3 23:33:33 10° N 23:37:09 51° ENE 23:38:59 25° SE
Gbstr 26 Del rocket 3.1 23:38:00 44° SSE 23:38:00 44° SSE 23:41:12 10° E
Cosmos 1833 Rocket 2.8 23:35:50 36° SW 23:38:08 70° NW 23:43:45 10° NNE
Cosmos 1606 Rocket 3.5 23:37:08 49° SSW 23:38:18 78° WNW 23:42:45 10° N
SL-16 R/B 3.0 23:32:56 10° NNW 23:38:32 54° NE 23:44:05 10° SE
Cosmos 1933 3.9 23:39:14 37° W 23:39:32 38° WNW 23:43:07 10° N
SL-4 R/B 2.3 23:42:00 42° SSE 23:42:00 42° SSE 23:45:25 10° E
ATLAS 3B R/B 3.0 23:35:22 10° NW 23:43:00 57° SW 23:50:14 10° SSE
FENGYUN 3A 3.7 23:38:01 10° NNE 23:43:29 75° ESE 23:46:15 30° S
Cosmos 1331 Rocket 4.2 23:41:51 36° SW 23:43:54 64° WNW 23:49:10 10° NNE
USA 281 3.6 23:41:47 32° SSW 23:43:58 40° WSW 23:50:09 10° NW
Envisat 4.2 23:39:30 10° NNE 23:44:14 37° E 23:47:59 15° SSE
Cosmos 1867 3.9 23:44:20 33° S 23:46:33 57° SE 23:51:54 10° NE
Cosmos 1766 2.8 23:45:52 10° N 23:49:05 72° ENE 23:49:49 48° SE
CZ-4C R/B 3.3 23:47:13 18° SSE 23:49:15 25° ESE 23:53:32 10° ENE
USA 229 DEB 4.3 23:44:25 10° NW 23:51:21 44° WSW 23:58:58 10° S
USA 229 4.3 23:44:28 10° NW 23:51:26 45° WSW 23:59:04 10° SSE
Cosmos 2098 Rocket 4.0 23:49:40 33° SW 23:51:52 51° WNW 23:57:27 10° N
Cosmos 2219 Rocket 4.1 23:46:54 10° NNW 23:51:56 32° NE 23:56:58 10° E
CZ-2D R/B 3.3 23:47:59 10° NNE 23:52:49 37° E 23:57:19 12° SSE
Cosmos 1110 Rocket 4.4 23:50:47 32° WSW 23:53:02 54° NW 23:58:14 10° NNE
